Flag for Russia Weather past 2 weeks in Ulyanovsk, Russia

Now
21 °F

Sunny.


Feels Like: 9 °F
Forecast: 15 / 29 °F
Wind: 13 mph from South

Location: Ulyanovsk

Current Time: Mar 30, 2015 at 8:57:13 AM

Latest Report: Mar 30, 2015 at 8:00 AM


Visibility: 5 mi

Pressure: 30.69 "Hg

Humidity: 74%

Dew point: 14 °F

Location of UlyanovskLocation

Historic Weather in Ulyanovsk — Graph

°F

Ulyanovsk temperature yesterday

Maximum temperature yesterday: 32 °F (at 3:00 PM)
Minimum temperature yesterday: 18 °F (at 1:00 AM)
Average temperature yesterday: 26 °F

Past Weeks' High & Low Weather Summary

 TemperatureHumidityPressure
High50 °F (Mar 19, 3:00 PM)100% (Mar 21, 12:00 AM)30.89 "Hg (Mar 21, 12:00 AM)
Low12 °F (Mar 17, 5:00 AM)38% (Mar 27, 3:00 PM)29.56 "Hg (Mar 22, 6:00 AM)
Average29 °F72%30.36 "Hg
* Reported Mar 15 7:00 AM — Mar 30 7:00 AM, Ulyanovsk, Weather by CustomWeather, © 2015

Note: Actual official high and low records may vary slightly from our data, if they occured in-between our weather recording intervals... More about our weather records

Advertising

Ulyanovsk weather history for previous 24 hours

 ConditionsComfort  
Time TempWeatherWind HumidityBarometerVisibility
7:00 AM
Mon, Mar 30
19 °FSunny.15 mph73%30.69 "Hg5 mi
6:00 AM18 °FClear.10 mph79%30.69 "Hg5 mi
5:00 AM18 °FClear.8 mph79%30.69 "HgN/A
4:00 AM19 °FClear.13 mph79%30.72 "HgN/A
3:00 AM21 °FClear.10 mph74%30.72 "HgN/A
2:00 AM21 °FClear.10 mph74%30.72 "HgN/A
1:00 AM23 °FClear.10 mph74%30.74 "HgN/A
12:00 AM25 °FClear.10 mph74%30.74 "HgN/A
11:00 PM
Sun, Mar 29
25 °FClear.10 mph74%30.74 "HgN/A
10:00 PM25 °FClear.10 mph80%30.74 "HgN/A
9:00 PM27 °FClear.13 mph74%30.77 "HgN/A
8:00 PM27 °FPassing clouds.13 mph74%30.77 "HgN/A
7:00 PM27 °FScattered clouds.13 mph74%30.80 "HgN/A
6:00 PM28 °FPartly sunny.15 mph69%30.77 "Hg5 mi
5:00 PM30 °FPartly sunny.20 mph64%30.80 "Hg5 mi
4:00 PM32 °FPartly sunny.20 mph55%30.83 "Hg5 mi
3:00 PM32 °FPartly sunny.20 mph55%30.83 "Hg5 mi
2:00 PM30 °FPartly sunny.20 mph59%30.86 "Hg5 mi
1:00 PM30 °FPartly sunny.15 mph59%30.86 "Hg5 mi
12:00 PM30 °FScattered clouds.17 mph55%30.86 "Hg5 mi
11:00 AM30 °FScattered clouds.13 mph59%30.89 "Hg5 mi
10:00 AM28 °FScattered clouds.10 mph64%30.89 "Hg5 mi
9:00 AM28 °FScattered clouds.10 mph64%30.89 "Hg5 mi
8:00 AM25 °FPassing clouds.8 mph69%30.89 "Hg5 mi
Weather by CustomWeather, © 2015

See weather overviewHow to use our weather pages